Hourly Weather Ali

Today, 3 March, Wednesday

Time Temperature Precipitation Wind Pressure Humidity
00:00 +5°C° 0 mm 1 mps 715 mmHg 81%
01:00 +4°C° 0 mm 2 mps 715 mmHg 84%
02:00 +3°C° 0 mm 2 mps 715 mmHg 88%
03:00 +3°C° 0.3 mm 2 mps 715 mmHg 91%
04:00 +3°C° 0.3 mm 2 mps 715 mmHg 94%
05:00 +3°C° 0 mm 2 mps 715 mmHg 98%
06:00 +2°C° 0.5 mm 2 mps 715 mmHg 98%
07:00 +1°C° 0.5 mm 3 mps 715 mmHg 98%
08:00 0°C° 0.5 mm 4 mps 715 mmHg 97%
09:00 +1°C° 0.9 mm 3 mps 715 mmHg 97%
10:00 0°C° 0.9 mm 3 mps 715 mmHg 96%
11:00 0°C° 0.9 mm 3 mps 715 mmHg 96%
12:00 +1°C° 0.3 mm 2 mps 715 mmHg 93%
13:00 +2°C° 0.3 mm 2 mps 715 mmHg 90%
14:00 +2°C° 0.3 mm 2 mps 715 mmHg 88%
15:00 +2°C° 0.1 mm 2 mps 715 mmHg 87%
16:00 +2°C° 0.1 mm 2 mps 715 mmHg 86%
17:00 +2°C° 0.1 mm 2 mps 715 mmHg 85%
18:00 +2°C° 0 mm 1 mps 716 mmHg 85%
19:00 +2°C° 0 mm 1 mps 716 mmHg 85%
20:00 +1°C° 0 mm 1 mps 716 mmHg 84%
21:00 +1°C° 0 mm 1 mps 716 mmHg 83%
22:00 +1°C° 0 mm 1 mps 716 mmHg 82%
23:00 -1°C° 0 mm 2 mps 715 mmHg 81%

Tomorrow, 4 March, Thursday

Time Temperature Precipitation Wind Pressure Humidity
00:00 +1°C° 0 mm 1 mps 715 mmHg 81%
01:00 +1°C° 0 mm 1 mps 715 mmHg 80%
02:00 0°C° 0 mm 0 mps 715 mmHg 79%
03:00 0°C° 0 mm 0 mps 715 mmHg 79%
04:00 0°C° 0 mm 0 mps 715 mmHg 78%
05:00 0°C° 0 mm 0 mps 715 mmHg 78%
06:00 +1°C° 0 mm 1 mps 715 mmHg 77%
07:00 +2°C° 0 mm 1 mps 715 mmHg 76%
08:00 +2°C° 0 mm 2 mps 715 mmHg 75%
09:00 +3°C° 0 mm 2 mps 715 mmHg 73%
10:00 +3°C° 0 mm 3 mps 714 mmHg 70%
11:00 +4°C° 0 mm 3 mps 714 mmHg 68%
12:00 +5°C° 0 mm 3 mps 714 mmHg 66%
13:00 +7°C° 0 mm 3 mps 713 mmHg 64%
14:00 +6°C° 0 mm 4 mps 713 mmHg 62%
15:00 +7°C° 0 mm 3 mps 713 mmHg 65%
16:00 +7°C° 0 mm 3 mps 713 mmHg 67%
17:00 +7°C° 0 mm 3 mps 713 mmHg 69%
18:00 +5°C° 0 mm 3 mps 712 mmHg 69%
19:00 +4°C° 0 mm 4 mps 712 mmHg 69%
20:00 +3°C° 0 mm 5 mps 712 mmHg 69%
21:00 +3°C° 0 mm 6 mps 712 mmHg 67%
22:00 +3°C° 0 mm 7 mps 712 mmHg 66%
23:00 +1°C° 0 mm 8 mps 711 mmHg 65%

Day after tomorrow, 5 March, Friday

Time Temperature Precipitation Wind Pressure Humidity
00:00 +2°C° 0 mm 7 mps 712 mmHg 66%
01:00 +2°C° 0 mm 6 mps 712 mmHg 66%
02:00 +2°C° 0 mm 6 mps 712 mmHg 67%
03:00 +2°C° 0.1 mm 6 mps 713 mmHg 72%
04:00 +2°C° 0.1 mm 6 mps 715 mmHg 76%
05:00 +1°C° 0.1 mm 5 mps 716 mmHg 81%
06:00 +1°C° 1.3 mm 5 mps 717 mmHg 85%
07:00 +1°C° 1.3 mm 5 mps 718 mmHg 89%
08:00 0°C° 1.3 mm 4 mps 719 mmHg 93%
09:00 +1°C° 0.7 mm 4 mps 720 mmHg 89%
10:00 +2°C° 0.7 mm 3 mps 720 mmHg 85%
11:00 +4°C° 0.7 mm 2 mps 721 mmHg 82%
12:00 +3°C° 0 mm 3 mps 720 mmHg 79%
13:00 +4°C° 0 mm 3 mps 720 mmHg 77%
14:00 +4°C° 0 mm 3 mps 720 mmHg 75%
15:00 +4°C° 0 mm 3 mps 720 mmHg 75%
16:00 +4°C° 0 mm 3 mps 720 mmHg 75%
17:00 +3°C° 0 mm 3 mps 720 mmHg 74%
18:00 +3°C° 0 mm 3 mps 720 mmHg 76%
19:00 +2°C° 0 mm 3 mps 720 mmHg 78%
20:00 +2°C° 0 mm 2 mps 720 mmHg 79%
21:00 +2°C° 0 mm 2 mps 720 mmHg 79%
22:00 +1°C° 0 mm 2 mps 720 mmHg 79%
23:00 +1°C° 0 mm 2 mps 719 mmHg 79%

6 March, Saturday

Time Temperature Precipitation Wind Pressure Humidity
00:00 +1°C° 0 mm 2 mps 719 mmHg 78%
01:00 +1°C° 0 mm 2 mps 718 mmHg 77%
02:00 -1°C° 0 mm 2 mps 718 mmHg 76%
03:00 -1°C° 0 mm 4 mps 718 mmHg 75%
04:00 -1°C° 0 mm 5 mps 717 mmHg 74%
05:00 -2°C° 0 mm 6 mps 717 mmHg 72%
06:00 -2°C° 0 mm 7 mps 716 mmHg 70%
07:00 -1°C° 0 mm 8 mps 715 mmHg 68%
08:00 0°C° 0 mm 8 mps 715 mmHg 65%
09:00 +1°C° 0 mm 8 mps 714 mmHg 61%
10:00 +2°C° 0 mm 8 mps 713 mmHg 57%
11:00 +5°C° 0 mm 8 mps 712 mmHg 52%
12:00 +6°C° 0 mm 8 mps 711 mmHg 49%
13:00 +7°C° 0 mm 8 mps 710 mmHg 46%
14:00 +7°C° 0 mm 8 mps 709 mmHg 44%
15:00 +8°C° 0 mm 7 mps 709 mmHg 44%
16:00 +8°C° 0 mm 6 mps 709 mmHg 44%
17:00 +7°C° 0 mm 5 mps 708 mmHg 45%
18:00 +6°C° 0 mm 4 mps 709 mmHg 49%
19:00 +5°C° 0 mm 3 mps 709 mmHg 53%
20:00 +5°C° 0 mm 2 mps 709 mmHg 58%
21:00 +5°C° 0 mm 2 mps 710 mmHg 59%
22:00 +5°C° 0 mm 1 mps 710 mmHg 61%
23:00 +5°C° 0 mm 1 mps 710 mmHg 63%

7 March, Sunday

Time Temperature Precipitation Wind Pressure Humidity
00:00 +4°C° 0 mm 1 mps 709 mmHg 63%
01:00 +4°C° 0 mm 1 mps 709 mmHg 63%
02:00 +4°C° 0 mm 1 mps 709 mmHg 63%
03:00 +3°C° 0 mm 1 mps 709 mmHg 63%
04:00 +2°C° 0 mm 2 mps 709 mmHg 63%
05:00 +2°C° 0 mm 2 mps 709 mmHg 63%
06:00 +2°C° 0 mm 2 mps 709 mmHg 60%
07:00 +3°C° 0 mm 2 mps 710 mmHg 57%
08:00 +3°C° 0 mm 2 mps 710 mmHg 54%
09:00 +4°C° 0 mm 2 mps 710 mmHg 51%
10:00 +6°C° 0 mm 2 mps 710 mmHg 47%
11:00 +7°C° 0 mm 2 mps 710 mmHg 44%
12:00 +8°C° 0 mm 2 mps 710 mmHg 42%
13:00 +10°C° 0 mm 1 mps 710 mmHg 40%
14:00 +10°C° 0 mm 1 mps 710 mmHg 38%
15:00 +9°C° 0 mm 2 mps 710 mmHg 41%
16:00 +9°C° 0 mm 2 mps 710 mmHg 44%
17:00 +8°C° 0 mm 3 mps 711 mmHg 47%
18:00 +7°C° 0 mm 2 mps 711 mmHg 51%
19:00 +7°C° 0 mm 1 mps 711 mmHg 54%
20:00 +6°C° 0 mm 1 mps 712 mmHg 58%
21:00 +6°C° 0 mm 1 mps 712 mmHg 59%
22:00 +5°C° 0 mm 1 mps 712 mmHg 61%
23:00 +5°C° 0 mm 1 mps 712 mmHg 62%

8 March, Monday

Time Temperature Precipitation Wind Pressure Humidity
00:00 +4°C° 0 mm 1 mps 711 mmHg 64%
01:00 +3°C° 0 mm 0 mps 711 mmHg 66%
02:00 +2°C° 0 mm 0 mps 711 mmHg 69%
03:00 +2°C° 0 mm 0 mps 711 mmHg 70%
04:00 +2°C° 0 mm 0 mps 711 mmHg 71%
05:00 +2°C° 0 mm 0 mps 711 mmHg 73%
06:00 +3°C° 0 mm 0 mps 711 mmHg 70%
07:00 +3°C° 0 mm 0 mps 712 mmHg 68%
08:00 +4°C° 0 mm 0 mps 712 mmHg 65%
09:00 +5°C° 0 mm 0 mps 712 mmHg 63%
10:00 +7°C° 0 mm 0 mps 712 mmHg 60%
11:00 +8°C° 0 mm 0 mps 712 mmHg 58%
12:00 +9°C° 0 mm 1 mps 712 mmHg 55%
13:00 +10°C° 0 mm 1 mps 712 mmHg 52%
14:00 +11°C° 0 mm 1 mps 712 mmHg 49%
15:00 +11°C° 0 mm 1 mps 712 mmHg 50%
16:00 +11°C° 0 mm 1 mps 713 mmHg 50%
17:00 +11°C° 0 mm 1 mps 713 mmHg 50%
18:00 +10°C° 0 mm 1 mps 713 mmHg 53%
19:00 +9°C° 0 mm 1 mps 714 mmHg 56%
20:00 +7°C° 0 mm 2 mps 714 mmHg 59%
21:00 +7°C° 0 mm 2 mps 714 mmHg 59%
22:00 +7°C° 0 mm 2 mps 714 mmHg 60%
23:00 +6°C° 0 mm 2 mps 714 mmHg 61%
Show more